Flag for Japan Weather past 2 weeks in Sendai, Japan

Now
72 °F

Scattered clouds.


Feels Like: 77 °F
Forecast: 52 / 74 °F
Wind: 8 mph from East

Location: Sendai Airport

Current Time: Sep 20, 2014 at 11:49:11 AM

Latest Report: Sep 20, 2014 at 11:00 AM


Visibility: N/A

Pressure: 29.95 "Hg

Humidity: 47%

Dew point: 50 °F

Location of SendaiLocation

Historic Weather in Sendai — Graph

°F

Sendai temperature yesterday

Maximum temperature yesterday: 77 °F (at 12:00 PM)
Minimum temperature yesterday: 55 °F (at 6:00 AM)
Average temperature yesterday: 70 °F

Past Weeks' High & Low Weather Summary

 TemperatureHumidityPressure
High81 °F (Sep 6, 12:00 PM)100% (Sep 6, 6:00 AM)30.01 "Hg (Sep 6, 6:00 AM)
Low55 °F (Sep 19, 6:00 AM)29% (Sep 18, 2:00 PM)29.68 "Hg (Sep 9, 12:00 PM)
Average70 °F75%29.85 "Hg
* Reported Sep 5 10:00 AM — Sep 20 10:00 AM, Sendai, Weather by CustomWeather, © 2014

Note: Actual official high and low records may vary slightly from our data, if they occured in-between our weather recording intervals... More about our weather records

Advertising

Sendai weather history for previous 24 hours

 ConditionsComfort  
Time TempWeatherWind HumidityBarometerVisibility
10:00 AM
Sep 20
73 °FScattered clouds.3 mph47%29.95 "HgN/A
9:00 AM68 °FPassing clouds.7 mph64%29.95 "HgN/A
8:00 AM64 °FScattered clouds.3 mph73%29.95 "HgN/A
7:00 AM61 °FPassing clouds.3 mph77%29.95 "HgN/A
6:00 AM55 °FPassing clouds.2 mph88%29.92 "HgN/A
9:00 PM
Sep 19
63 °FPassing clouds.1 mph64%29.89 "HgN/A
8:00 PM63 °FPassing clouds.5 mph59%29.89 "HgN/A
7:00 PM66 °FPassing clouds.8 mph49%29.89 "HgN/A
6:00 PM68 °FPassing clouds.8 mph46%29.86 "HgN/A
5:00 PM73 °FPassing clouds.13 mph38%29.83 "HgN/A
4:00 PM75 °FScattered clouds.15 mph36%29.80 "HgN/A
3:00 PM75 °FScattered clouds.12 mph39%29.80 "HgN/A
2:00 PM77 °FScattered clouds.16 mph36%29.83 "HgN/A
1:00 PM77 °FScattered clouds.14 mph36%29.83 "HgN/A
12:00 PM77 °FScattered clouds.18 mph39%29.83 "HgN/A
11:00 AM75 °FScattered clouds.9 mph47%29.86 "HgN/A
Weather by CustomWeather, © 2014

See weather overviewHow to use our weather pages